Location: Olsztyn
(53.7767°N, 20.4765°E)
Time: 18:43:08
(UTC+02:00)

A-11 Canister half - Pass Details

Date: 23 January 2022
Orbit: 1513 x 1686 km, 47.2° (Epoch: 24 May)

Event Time Altitude Azimuth Distance (km) Brightness Sun altitude
Rises 19:02:57 0° 251° (WSW) 4,716 12.6 -26.2°
Reaches altitude 10° 19:06:05 10° 248° (WSW) 3,715 11.8 -26.7°
Maximum altitude 19:15:08 58° 173° (S) 1,737 9.1 -28.0°
Enters shadow 19:17:20 48° 129° (SE) 1,913 9.1 -28.3°
